Temp
3 3 4 4 4 4 5 5 5 5 5 5 5 5 5 4 4 4 4 4 4 4 4 4 4 5 5 5 5 5 5 6 6 6 7 7 7 8 8 8 8 8 8 8 8 8 8 8 8 8 8 8 8 8 9 9 9 9 10 10 10 10 10 10 10 9 9 10 10
3 3 3 3 4 4 4 4 4 4 4 4 4 4 4 4 4 4 4 4 3 3 3 3 3 3 3 3 3 4 4 4 5 5 6 6 6 7 7 7 7 7 7 7 7 7 7 7 7 7 7 7 8 8 8 8 9 9 10 10 11 11 10 10 9 9 9 9 10
2 2 3 3 3 3 4 4 3 3 3 3 3 3 3 3 3 3 3 3 2 2 2 2 2 2 2 2 2 3 3 3 4 4 5 5 5 5 6 6 6 6 6 6 6 6 6 6 6 6 6 7 7 7 7 8 8 9 10 10 11 10 10 9 8 8 9 9 9
1 2 2 2 2 3 3 3 3 3 3 3 3 3 3 3 2 2 2 2 1 1 1 1 1 2 2 2 2 2 2 2 3 3 3 3 3 4 4 5 5 5 5 5 5 5 5 6 6 6 6 6 6 6 7 7 8 9 9 10 10 10 9 8 8 8 8 9 9
1 1 1 1 1 1 2 2 2 2 2 2 2 2 2 2 1 1 1 1 1 1 1 1 1 1 1 1 1 1 2 2 2 2 2 3 2 3 3 4 4 4 4 4 4 4 5 5 5 5 5 6 6 6 6 7 7 8 9 9 9 9 8 8 8 8 8 8 8
-0 -0 -0 0 0 0 0 0 1 1 1 1 1 1 1 1 1 1 1 1 1 1 1 1 1 1 1 1 1 2 2 2 2 2 2 2 2 2 2 3 3 3 3 3 3 3 4 4 4 4 5 5 5 6 6 6 6 7 7 8 8 8 7 7 7 7 8 8 8
-1 -1 -1 -0 -0 -0 0 0 0 0 0 0 1 1 1 1 1 1 1 1 0 0 0 0 1 1 1 1 2 2 2 2 2 2 2 2 2 2 2 2 3 3 3 3 3 3 3 3 3 4 4 4 4 5 5 5 5 5 6 6 7 7 6 6 6 6 7 7 8
-1 -1 -1 -0 -0 -0 -0 -0 0 0 0 0 0 0 0 0 0 0 0 1 1 1 1 1 1 1 1 1 2 2 2 2 2 2 2 2 2 2 2 2 2 3 3 2 2 2 3 3 3 3 3 3 3 3 3 4 4 4 5 5 5 5 5 5 5 5 6 6 6
-1 -1 -1 -1 -0 -0 -0 -0 -0 0 0 0 0 0 0 0 0 0 0 1 1 1 1 0 0 1 1 1 1 2 2 2 2 2 2 2 2 2 2 2 2 2 2 2 2 2 2 2 2 2 2 2 2 2 2 3 3 4 4 4 4 4 4 4 4 4 4 5 5
-1 -1 -1 -1 -1 -1 -0 -0 0 0 0 0 0 0 0 -0 0 0 0 0 0 0 0 0 0 0 1 1 1 1 1 1 1 1 1 1 1 2 2 2 2 2 2 2 2 2 2 2 2 2 2 2 2 2 2 2 3 3 4 4 4 3 3 3 3 3 4 4 4
-1 -1 -1 -1 -1 -1 -0 -0 0 0 0 0 0 0 0 0 0 0 0 0 0 0 0 0 0 0 0 1 1 1 1 1 1 1 1 1 1 1 2 2 2 2 2 2 2 2 2 2 2 2 1 1 1 2 2 2 3 3 3 3 3 3 3 3 3 3 3 3 3
-1 -1 -1 -1 -1 -1 -0 -0 0 0 0 -0 -0 -0 -0 -0 -0 -0 -0 -0 0 0 0 0 -0 -0 -0 -0 0 0 0 1 1 1 1 1 1 1 1 1 1 1 1 1 2 2 2 1 1 1 1 1 1 2 2 2 3 3 3 3 3 3 3 3 3 3 3 3 3
-1 -1 -1 -1 -1 -1 -1 -0 -0 -0 -0 -0 -0 -0 -0 -0 -0 -0 -0 -0 -0 -0 -0 -0 -0 -0 -1 -1 -1 -0 -0 0 0 0 0 0 0 0 0 0 0 0 1 1 1 1 1 1 1 1 1 1 1 1 2 2 3 3 3 3 3 3 3 3 3 3 3 3 3
-1 -1 -1 -1 -1 -1 -1 -1 -1 -1 -1 -1 -1 -1 -0 -0 -0 -0 -0 -0 -0 -0 -0 -0 -1 -1 -1 -1 -1 -1 -1 -0 -0 -0 -0 -0 -1 -1 -1 -1 -1 -1 -0 -0 0 0 1 1 0 0 0 0 1 1 2 2 2 3 3 3 3 3 3 3 3 3 3 3 2
-1 -1 -1 -1 -1 -1 -1 -1 -1 -1 -1 -1 -1 -1 -1 -1 -1 -1 -1 -1 -1 -1 -1 -1 -1 -1 -1 -2 -1 -1 -1 -1 -1 -1 -1 -1 -1 -1 -1 -1 -1 -1 -1 -1 -1 -0 -0 -0 -0 -0 -0 0 0 1 1 2 2 2 2 2 2 2 2 2 2 2 2 2 2
-1 -1 -1 -1 -1 -1 -1 -1 -1 -1 -1 -1 -1 -1 -1 -1 -1 -1 -1 -1 -1 -1 -1 -1 -1 -1 -1 -2 -2 -1 -1 -1 -1 -1 -1 -1 -2 -2 -2 -2 -2 -2 -2 -2 -1 -1 -1 -1 -1 -1 -1 -0 -0 0 0 1 1 1 1 1 1 1 2 2 2 2 2 2 2
-1 -1 -1 -0 -0 -0 -1 -1 -1 -1 -1 -1 -1 -1 -1 -1 -1 -1 -1 -1 -1 -1 -1 -1 -2 -2 -2 -2 -2 -2 -1 -1 -1 -1 -1 -2 -2 -2 -2 -2 -2 -2 -2 -2 -2 -2 -1 -1 -1 -1 -1 -1 -1 -0 -0 -0 0 0 0 1 1 1 1 1 1 1 1 1 1
-0 -0 -0 -0 -0 -0 -1 -1 -1 -1 -1 -1 -1 -1 -1 -1 -1 -1 -1 -1 -1 -1 -1 -2 -2 -2 -2 -2 -2 -2 -1 -1 -1 -1 -1 -2 -2 -2 -2 -2 -2 -2 -2 -2 -2 -2 -2 -2 -2 -1 -1 -1 -1 -1 -1 -1 -0 -0 -0 0 0 0 0 1 1 1 1 1 1
-0 -0 -1 -1 -1 -1 -1 -1 -1 -1 -1 -1 -1 -1 -1 -1 -1 -1 -1 -1 -1 -1 -1 -2 -2 -2 -2 -2 -2 -1 -1 -1 -1 -1 -1 -1 -1 -2 -2 -2 -2 -2 -2 -2 -2 -3 -2 -2 -2 -2 -2 -1 -1 -1 -1 -1 -1 -1 -0 -0 -0 0 0 0 0 0 0 0 0
-1 -1 -1 -1 -1 -1 -1 -1 -1 -1 -1 -1 -1 -1 -1 -1 -1 -1 -1 -1 -1 -1 -1 -1 -2 -2 -2 -2 -2 -1 -1 -1 -1 -1 -1 -1 -1 -2 -2 -2 -2 -2 -2 -3 -3 -3 -3 -3 -2 -2 -2 -1 -1 -1 -1 -1 -1 -1 -0 -0 -0 -0 -0 -0 -0 -0 -0 -0 -0
-1 -1 -1 -1 -1 -1 -1 -1 -1 -1 -1 -1 -1 -1 -1 -1 -1 -1 -1 -1 -1 -1 -1 -2 -2 -2 -2 -2 -2 -2 -2 -2 -2 -2 -2 -2 -2 -2 -2 -3 -3 -3 -3 -3 -3 -3 -3 -2 -2 -2 -2 -1 -1 -1 -1 -1 -1 -1 -1 -0 -0 -0 -0 -0 -0 -0 -1 -1 -1
-1 -1 -1 -1 -1 -1 -1 -1 -1 -1 -1 -1 -1 -1 -1 -1 -1 -1 -1 -2 -2 -2 -2 -2 -2 -2 -2 -2 -2 -2 -2 -2 -2 -2 -2 -2 -2 -2 -3 -3 -3 -3 -3 -3 -2 -2 -2 -2 -2 -2 -1 -1 -1 -1 -1 -1 -1 -1 -1 -1 -1 -1 -1 -1 -1 -1 -1 -1 -1
-1 -1 -1 -1 -1 -1 -1 -1 -1 -1 -1 -1 -1 -1 -1 -1 -1 -1 -1 -2 -2 -2 -2 -2 -2 -2 -3 -3 -3 -2 -2 -2 -2 -2 -2 -2 -2 -2 -3 -3 -3 -2 -2 -2 -2 -2 -2 -2 -2 -1 -1 -1 -1 -1 -1 -1 -1 -1 -1 -1 -1 -1 -1 -1 -1 -1 -1 -1 -1
-1 -1 -1 -1 -1 -1 -1 -2 -1 -1 -1 -1 -1 -1 -1 -1 -1 -1 -1 -2 -2 -2 -2 -2 -2 -2 -3 -3 -3 -3 -3 -2 -2 -2 -2 -2 -2 -2 -2 -2 -2 -2 -2 -2 -2 -2 -2 -1 -1 -1 -1 -1 -1 -1 -1 -1 -1 -1 -1 -1 -1 -1 -1 -1 -1 -1 -1 -1 -1
-1 -1 -1 -1 -1 -1 -2 -2 -2 -1 -1 -1 -1 -1 -1 -1 -1 -1 -1 -2 -2 -2 -2 -2 -2 -3 -3 -3 -3 -3 -3 -2 -2 -3 -2 -2 -2 -2 -2 -2 -3 -3 -2 -2 -3 -2 -2 -2 -1 -1 -2 -2 -1 -1 -1 -1 -1 -1 -1 -1 -2 -2 -2 -2 -2 -2 -2 -2 -2
-1 -1 -1 -1 -1 -1 -2 -2 -2 -1 -1 -1 -1 -1 -1 -1 -1 -1 -2 -2 -2 -2 -2 -2 -2 -2 -3 -3 -3 -3 -3 -3 -3 -3 -3 -3 -3 -3 -3 -3 -4 -4 -3 -3 -2 -2 -2 -2 -2 -1 -2 -2 -2 -2 -1 -1 -1 -1 -2 -2 -2 -2 -2 -2 -2 -2 -2 -2 -2
-1 -1 -1 -1 -1 -1 -1 -1 -1 -1 -1 -1 -1 -1 -1 -1 -1 -1 -2 -2 -2 -2 -2 -2 -2 -2 -3 -3 -3 -3 -3 -3 -3 -3 -3 -3 -3 -3 -3 -4 -5 -6 -5 -4 -3 -2 -2 -2 -2 -2 -2 -2 -2 -2 -2 -2 -2 -2 -2 -2 -2 -2 -2 -2 -2 -2 -2 -2 -2
-1 -1 -1 -1 -1 -1 -1 -1 -1 -1 -1 -1 -1 -1 -1 -1 -1 -1 -1 -1 -2 -2 -2 -2 -2 -2 -3 -3 -3 -3 -3 -3 -3 -3 -3 -3 -3 -3 -3 -4 -5 -6 -6 -5 -4 -3 -2 -3 -3 -2 -2 -2 -2 -2 -2 -2 -2 -2 -2 -2 -2 -2 -2 -2 -2 -2 -2 -3 -3
-1 -1 -1 -1 -1 -1 -1 -1 -1 -2 -2 -2 -2 -2 -2 -2 -2 -1 -1 -1 -1 -1 -2 -2 -2 -2 -2 -3 -3 -3 -3 -3 -3 -3 -3 -3 -3 -3 -3 -3 -4 -5 -6 -6 -6 -4 -3 -3 -3 -3 -2 -2 -2 -2 -2 -2 -2 -2 -2 -2 -2 -2 -2 -2 -2 -3 -3 -3 -3
-2 -2 -2 -2 -2 -2 -2 -2 -2 -2 -2 -2 -2 -2 -2 -2 -2 -1 -1 -1 -1 -1 -1 -2 -2 -2 -2 -2 -3 -3 -3 -3 -3 -3 -3 -3 -3 -3 -3 -3 -4 -4 -6 -6 -7 -6 -4 -3 -3 -3 -2 -2 -2 -2 -2 -2 -2 -2 -2 -2 -2 -3 -3 -3 -3 -3 -3 -3 -3
-2 -2 -2 -2 -2 -2 -2 -1 -1 -1 -1 -2 -2 -2 -2 -2 -2 -1 -1 -1 -1 -1 -1 -1 -2 -2 -2 -2 -2 -3 -3 -3 -3 -3 -3 -3 -3 -4 -4 -3 -3 -4 -5 -6 -7 -6 -5 -3 -3 -3 -2 -2 -2 -2 -2 -2 -2 -2 -2 -2 -2 -2 -3 -3 -3 -3 -3 -3 -3
-2 -2 -2 -2 -2 -2 -1 -1 -1 -1 -2 -2 -2 -2 -2 -2 -1 -1 -1 -1 -1 -1 -1 -1 -2 -2 -2 -2 -2 -2 -2 -2 -2 -2 -3 -3 -3 -3 -3 -3 -3 -3 -4 -6 -6 -6 -5 -3 -2 -3 -3 -3 -2 -2 -2 -2 -2 -2 -2 -2 -2 -3 -3 -3 -3 -3 -3 -3 -3
-2 -2 -2 -2 -2 -1 -1 -1 -1 -2 -2 -2 -2 -2 -1 -1 -1 -1 -1 -1 -1 -1 -1 -1 -2 -2 -2 -2 -2 -2 -2 -2 -2 -2 -2 -2 -3 -3 -3 -3 -2 -2 -4 -6 -6 -6 -5 -4 -3 -3 -3 -3 -2 -2 -2 -2 -2 -2 -2 -2 -3 -3 -3 -3 -3 -3 -3 -3 -4
-2 -2 -2 -2 -2 -2 -2 -2 -2 -2 -2 -2 -2 -2 -1 -1 -1 -1 -1 -1 -1 -1 -1 -1 -2 -2 -2 -2 -2 -2 -2 -2 -2 -2 -2 -2 -2 -3 -3 -3 -3 -3 -4 -6 -7 -7 -6 -5 -4 -3 -3 -3 -3 -2 -2 -2 -2 -2 -3 -3 -3 -3 -3 -3 -3 -4 -4 -4 -4
-2 -2 -2 -2 -2 -2 -2 -2 -2 -2 -2 -2 -2 -2 -2 -2 -2 -2 -2 -1 -1 -1 -1 -1 -2 -2 -2 -2 -2 -2 -2 -2 -2 -2 -2 -2 -3 -3 -3 -3 -3 -3 -4 -7 -7 -7 -7 -7 -6 -4 -4 -4 -3 -3 -3 -3 -3 -3 -3 -3 -3 -4 -4 -4 -4 -4 -4 -4 -4
-2 -2 -2 -2 -2 -2 -2 -2 -2 -2 -2 -2 -2 -2 -2 -2 -2 -2 -2 -2 -2 -2 -2 -2 -2 -2 -2 -2 -2 -2 -2 -2 -2 -2 -2 -3 -3 -3 -4 -4 -4 -4 -5 -7 -8 -8 -8 -8 -7 -6 -5 -4 -3 -3 -3 -3 -4 -4 -4 -4 -4 -4 -4 -4 -4 -4 -4 -4 -4
-2 -2 -2 -2 -2 -2 -2 -2 -2 -2 -2 -2 -2 -2 -2 -2 -2 -2 -2 -2 -2 -2 -2 -2 -2 -2 -2 -2 -2 -3 -3 -3 -3 -3 -3 -3 -4 -4 -5 -5 -5 -5 -5 -7 -7 -8 -8 -8 -8 -7 -5 -4 -3 -3 -3 -3 -3 -3 -3 -3 -3 -4 -4 -3 -3 -3 -3 -3 -3
-2 -2 -2 -2 -2 -2 -2 -2 -2 -2 -2 -2 -2 -2 -2 -2 -2 -2 -2 -2 -2 -2 -2 -2 -2 -2 -3 -3 -3 -3 -3 -3 -3 -4 -4 -4 -4 -5 -5 -5 -5 -5 -5 -6 -7 -8 -8 -8 -8 -6 -5 -3 -3 -3 -3 -3 -3 -3 -3 -3 -3 -3 -3 -3 -3 -3 -3 -3 -4
-2 -2 -2 -2 -2 -2 -2 -2 -2 -2 -2 -2 -2 -2 -2 -2 -2 -2 -2 -2 -2 -2 -3 -3 -3 -3 -3 -3 -4 -4 -4 -4 -4 -4 -4 -4 -4 -5 -5 -5 -5 -5 -4 -4 -6 -8 -8 -8 -8 -7 -5 -3 -3 -3 -3 -3 -3 -3 -3 -3 -3 -3 -3 -3 -3 -3 -4 -4 -4
-2 -2 -2 -2 -2 -2 -2 -2 -2 -2 -2 -2 -2 -2 -2 -2 -2 -2 -2 -3 -3 -3 -3 -3 -4 -4 -4 -4 -4 -5 -5 -4 -4 -4 -4 -4 -4 -4 -4 -5 -5 -4 -4 -4 -6 -7 -8 -8 -8 -7 -5 -3 -3 -3 -3 -3 -3 -3 -3 -3 -3 -3 -3 -4 -4 -4 -4 -4 -4
-2 -2 -2 -2 -2 -2 -2 -2 -2 -2 -2 -2 -2 -2 -2 -2 -3 -3 -3 -3 -3 -4 -4 -4 -4 -4 -4 -5 -5 -5 -5 -4 -4 -4 -4 -4 -4 -4 -4 -5 -5 -4 -4 -4 -6 -7 -8 -8 -7 -7 -6 -4 -4 -4 -4 -3 -3 -3 -3 -3 -3 -3 -3 -4 -4 -4 -4 -4 -4
Height
1462 1462 1462 1462 1462 1462 1463 1463 1463 1464 1464 1464 1464 1465 1465 1465 1465 1465 1465 1465 1465 1465 1465 1465 1465 1464 1464 1464 1464 1463 1463 1463 1462 1462 1462 1462 1462 1462 1462 1462 1462 1462 1462 1462 1462 1462 1462 1462 1462 1462 1462 1462 1462 1462 1462 1463 1463 1463 1463 1463 1463 1463 1464 1464 1464 1464 1464 1463 1463
1463 1463 1462 1462 1463 1463 1463 1463 1463 1464 1464 1464 1464 1464 1465 1465 1465 1465 1465 1465 1465 1465 1464 1464 1464 1464 1463 1463 1463 1463 1462 1462 1462 1461 1461 1461 1461 1461 1461 1461 1461 1461 1461 1461 1460 1460 1460 1461 1461 1461 1460 1460 1460 1460 1461 1461 1461 1461 1461 1460 1460 1461 1462 1462 1462 1462 1462 1462 1461
1463 1463 1463 1463 1463 1463 1463 1463 1463 1464 1464 1464 1464 1464 1464 1465 1465 1464 1464 1464 1464 1464 1464 1464 1464 1463 1463 1463 1463 1462 1462 1462 1461 1461 1461 1460 1460 1460 1460 1460 1460 1460 1459 1459 1459 1459 1459 1459 1459 1459 1459 1459 1459 1459 1459 1459 1459 1459 1459 1458 1458 1459 1460 1460 1460 1460 1461 1460 1460
1464 1464 1464 1463 1463 1463 1463 1463 1464 1464 1464 1464 1464 1464 1464 1464 1464 1464 1464 1464 1464 1464 1464 1464 1463 1463 1463 1463 1463 1462 1462 1462 1461 1461 1460 1460 1460 1460 1459 1459 1459 1459 1458 1458 1458 1458 1458 1458 1458 1458 1458 1458 1458 1458 1458 1457 1457 1457 1457 1457 1457 1457 1457 1458 1458 1459 1459 1459 1459
1465 1465 1464 1464 1464 1464 1464 1464 1464 1464 1464 1464 1465 1465 1465 1465 1465 1465 1465 1465 1464 1464 1464 1464 1464 1463 1463 1463 1463 1462 1462 1462 1461 1461 1460 1460 1460 1460 1459 1459 1459 1458 1458 1458 1457 1457 1457 1457 1457 1457 1457 1457 1457 1456 1456 1456 1456 1455 1455 1455 1455 1455 1455 1456 1456 1457 1457 1457 1457
1466 1465 1465 1465 1464 1464 1464 1464 1464 1465 1465 1465 1465 1465 1465 1465 1465 1465 1465 1465 1465 1465 1464 1464 1464 1464 1463 1463 1463 1463 1462 1462 1462 1461 1461 1460 1460 1460 1459 1459 1459 1458 1458 1458 1457 1457 1457 1457 1456 1456 1456 1456 1456 1456 1455 1455 1455 1454 1454 1453 1453 1453 1454 1454 1455 1455 1455 1455 1455
1467 1466 1466 1465 1465 1465 1465 1465 1465 1465 1466 1466 1466 1466 1466 1466 1466 1466 1466 1466 1465 1465 1465 1465 1465 1464 1464 1464 1463 1463 1463 1462 1462 1462 1461 1461 1460 1460 1460 1459 1459 1459 1459 1458 1458 1457 1457 1457 1456 1456 1456 1456 1455 1455 1455 1455 1454 1454 1453 1452 1452 1452 1453 1453 1453 1454 1454 1454 1454
1468 1468 1467 1467 1467 1467 1467 1467 1466 1466 1466 1466 1467 1467 1467 1467 1467 1467 1467 1466 1466 1466 1466 1465 1465 1465 1465 1464 1464 1463 1463 1462 1462 1462 1462 1461 1461 1460 1460 1460 1459 1459 1459 1459 1458 1458 1457 1457 1457 1456 1456 1456 1455 1455 1455 1454 1454 1453 1452 1451 1451 1451 1452 1452 1452 1452 1452 1452 1452
1470 1469 1469 1469 1468 1468 1468 1468 1467 1467 1467 1467 1467 1467 1467 1467 1467 1467 1467 1467 1466 1466 1466 1466 1466 1465 1465 1464 1464 1463 1463 1463 1462 1462 1462 1461 1461 1461 1460 1460 1460 1459 1459 1459 1459 1458 1458 1457 1457 1457 1457 1456 1456 1455 1455 1454 1454 1452 1451 1450 1450 1451 1451 1451 1451 1451 1451 1451 1451
1471 1471 1470 1470 1470 1469 1469 1469 1468 1468 1468 1467 1467 1467 1467 1467 1467 1467 1467 1467 1467 1467 1467 1466 1466 1466 1465 1465 1464 1464 1463 1463 1462 1462 1462 1461 1461 1461 1460 1460 1460 1460 1460 1459 1459 1459 1458 1458 1457 1457 1457 1457 1456 1456 1455 1454 1453 1452 1451 1450 1451 1451 1451 1451 1451 1451 1451 1450 1450
1472 1472 1471 1471 1471 1470 1470 1470 1469 1469 1469 1468 1468 1468 1468 1468 1468 1468 1468 1468 1468 1467 1467 1467 1466 1466 1465 1465 1465 1464 1464 1463 1463 1462 1462 1462 1461 1461 1461 1460 1460 1460 1460 1460 1459 1459 1458 1458 1458 1458 1457 1457 1457 1456 1455 1454 1453 1452 1451 1451 1451 1451 1451 1451 1451 1450 1450 1450 1450
1473 1473 1472 1472 1472 1472 1471 1471 1470 1470 1470 1469 1469 1469 1469 1469 1468 1468 1468 1468 1468 1467 1467 1467 1467 1466 1466 1465 1465 1464 1464 1463 1463 1462 1462 1462 1461 1461 1461 1461 1461 1460 1460 1460 1460 1459 1459 1458 1458 1458 1458 1457 1456 1456 1455 1454 1452 1452 1452 1452 1452 1451 1451 1451 1450 1450 1450 1450 1449
1475 1474 1474 1473 1473 1473 1472 1472 1471 1471 1470 1470 1470 1470 1470 1469 1469 1469 1469 1469 1468 1468 1468 1467 1467 1467 1466 1466 1465 1465 1464 1464 1463 1463 1462 1462 1462 1462 1461 1461 1461 1461 1460 1460 1460 1459 1459 1459 1459 1458 1458 1457 1456 1455 1454 1453 1452 1452 1452 1452 1452 1451 1451 1450 1450 1450 1450 1449 1449
1476 1476 1475 1475 1474 1474 1473 1472 1472 1472 1472 1471 1471 1471 1470 1470 1470 1470 1470 1470 1469 1469 1468 1468 1468 1467 1467 1466 1466 1466 1465 1464 1464 1463 1463 1462 1462 1462 1462 1462 1462 1461 1461 1461 1460 1460 1459 1459 1459 1458 1458 1457 1456 1455 1454 1453 1452 1452 1452 1452 1451 1451 1451 1450 1450 1450 1449 1449 1449
1477 1477 1476 1475 1475 1475 1474 1473 1473 1473 1473 1472 1472 1472 1471 1471 1471 1471 1470 1470 1470 1469 1469 1469 1468 1468 1468 1467 1467 1466 1466 1465 1465 1464 1463 1463 1463 1463 1463 1462 1462 1462 1462 1462 1461 1461 1460 1460 1459 1459 1458 1457 1456 1455 1454 1453 1452 1452 1452 1452 1451 1451 1450 1450 1450 1450 1449 1449 1449
1479 1478 1477 1477 1476 1476 1475 1475 1474 1474 1474 1473 1473 1473 1472 1472 1472 1471 1471 1471 1470 1470 1470 1469 1469 1469 1469 1468 1468 1467 1467 1466 1466 1465 1464 1464 1463 1463 1463 1463 1463 1463 1462 1462 1462 1461 1461 1460 1460 1459 1458 1457 1456 1455 1454 1454 1453 1453 1452 1452 1451 1451 1450 1450 1450 1449 1449 1449 1449
1480 1479 1479 1478 1477 1477 1476 1476 1475 1475 1475 1474 1474 1474 1473 1473 1472 1472 1472 1471 1471 1471 1470 1470 1470 1470 1469 1469 1469 1468 1468 1467 1467 1466 1465 1465 1464 1464 1464 1464 1464 1463 1463 1463 1462 1462 1461 1461 1460 1460 1459 1458 1457 1456 1455 1454 1454 1453 1453 1452 1451 1451 1450 1450 1450 1449 1449 1449 1449
1481 1480 1480 1479 1479 1478 1478 1477 1477 1476 1476 1475 1475 1475 1474 1474 1474 1473 1473 1472 1472 1472 1471 1471 1471 1470 1470 1470 1469 1469 1469 1468 1467 1467 1466 1466 1465 1465 1465 1465 1464 1464 1463 1463 1463 1462 1462 1462 1461 1460 1459 1458 1457 1457 1456 1455 1455 1454 1453 1452 1452 1451 1451 1450 1450 1450 1450 1449 1449
1482 1481 1481 1480 1480 1479 1479 1478 1478 1477 1477 1477 1476 1476 1475 1475 1475 1474 1474 1473 1473 1472 1472 1472 1472 1471 1471 1471 1470 1470 1469 1469 1469 1468 1467 1467 1466 1465 1465 1465 1465 1465 1464 1464 1464 1463 1463 1463 1462 1461 1460 1459 1458 1457 1457 1456 1455 1454 1453 1453 1452 1451 1451 1451 1450 1450 1450 1450 1450
1483 1482 1482 1481 1481 1480 1480 1480 1479 1479 1478 1478 1477 1477 1477 1476 1476 1475 1475 1474 1474 1474 1473 1473 1472 1472 1472 1472 1471 1471 1470 1470 1470 1469 1469 1468 1467 1466 1466 1466 1466 1466 1465 1465 1464 1464 1463 1463 1462 1462 1461 1460 1459 1458 1457 1456 1455 1454 1454 1453 1452 1452 1452 1451 1451 1451 1450 1450 1450
1484 1483 1483 1482 1482 1481 1481 1480 1480 1480 1479 1479 1478 1478 1477 1477 1477 1476 1476 1475 1475 1474 1474 1474 1473 1473 1473 1472 1472 1472 1471 1471 1471 1470 1470 1469 1468 1467 1467 1467 1467 1466 1466 1465 1465 1464 1464 1463 1462 1462 1461 1460 1459 1458 1457 1456 1455 1455 1454 1453 1453 1453 1452 1452 1452 1451 1451 1450 1450
1484 1484 1483 1483 1482 1482 1482 1481 1481 1480 1480 1480 1479 1479 1478 1478 1477 1477 1476 1476 1476 1475 1475 1474 1474 1474 1473 1473 1473 1472 1472 1472 1472 1471 1471 1470 1469 1468 1468 1467 1467 1467 1466 1465 1465 1464 1464 1463 1463 1462 1461 1460 1460 1459 1458 1457 1456 1455 1455 1454 1454 1453 1453 1453 1452 1452 1451 1451 1450
1485 1484 1484 1483 1483 1483 1482 1482 1481 1481 1481 1480 1480 1479 1479 1478 1478 1477 1477 1477 1476 1476 1475 1475 1475 1474 1474 1474 1473 1473 1473 1472 1472 1472 1471 1470 1470 1469 1468 1467 1467 1467 1466 1465 1465 1464 1464 1463 1463 1462 1461 1461 1460 1459 1458 1457 1457 1456 1455 1455 1455 1454 1454 1453 1452 1452 1452 1451 1450
1485 1485 1484 1484 1484 1483 1483 1482 1482 1482 1481 1481 1480 1480 1479 1479 1478 1478 1478 1477 1477 1477 1476 1476 1475 1475 1475 1474 1474 1474 1473 1473 1472 1472 1471 1471 1470 1469 1468 1467 1467 1467 1466 1466 1465 1465 1464 1463 1463 1462 1461 1461 1460 1459 1459 1458 1457 1457 1456 1456 1455 1455 1454 1454 1453 1452 1452 1451 1451
1486 1485 1485 1484 1484 1484 1483 1483 1482 1482 1482 1481 1481 1480 1480 1480 1479 1479 1478 1478 1477 1477 1477 1476 1476 1475 1475 1475 1475 1474 1473 1473 1472 1472 1471 1471 1470 1469 1468 1467 1467 1467 1466 1466 1465 1465 1464 1463 1463 1462 1462 1461 1460 1460 1459 1458 1458 1457 1457 1456 1455 1455 1454 1454 1453 1453 1452 1451 1451
1486 1486 1485 1485 1485 1484 1484 1483 1483 1483 1482 1482 1481 1481 1480 1480 1480 1479 1479 1478 1478 1477 1477 1477 1476 1476 1476 1475 1475 1474 1474 1473 1472 1472 1471 1471 1470 1469 1469 1468 1468 1468 1467 1466 1466 1465 1465 1464 1463 1462 1462 1461 1461 1460 1459 1459 1458 1457 1457 1456 1456 1455 1455 1454 1453 1453 1452 1451 1451
1487 1486 1486 1485 1485 1485 1484 1484 1483 1483 1483 1482 1482 1481 1481 1480 1480 1480 1479 1479 1478 1478 1477 1477 1477 1476 1476 1476 1475 1475 1474 1473 1472 1472 1471 1471 1470 1470 1469 1468 1469 1469 1468 1467 1466 1466 1465 1464 1463 1463 1462 1462 1461 1460 1460 1459 1458 1458 1457 1456 1456 1455 1455 1454 1453 1453 1452 1451 1451
1487 1486 1486 1486 1485 1485 1484 1484 1484 1483 1483 1482 1482 1482 1481 1481 1480 1480 1479 1479 1479 1478 1478 1477 1477 1477 1476 1476 1475 1475 1474 1474 1473 1472 1472 1471 1471 1470 1469 1469 1469 1469 1469 1468 1467 1466 1465 1464 1464 1463 1462 1462 1461 1461 1460 1459 1459 1458 1457 1456 1456 1455 1454 1454 1453 1452 1452 1451 1450
1487 1486 1486 1486 1485 1485 1484 1484 1483 1483 1483 1482 1482 1482 1481 1481 1480 1480 1480 1479 1479 1478 1478 1478 1477 1477 1477 1476 1475 1475 1474 1474 1473 1473 1472 1472 1471 1470 1470 1469 1468 1469 1469 1469 1467 1466 1465 1464 1464 1463 1462 1462 1461 1461 1460 1459 1459 1458 1457 1457 1456 1455 1454 1454 1453 1452 1452 1451 1450
1487 1486 1486 1485 1485 1485 1484 1484 1483 1483 1483 1482 1482 1482 1481 1481 1481 1480 1480 1479 1479 1479 1478 1478 1477 1477 1477 1476 1475 1475 1475 1474 1473 1473 1472 1472 1471 1471 1470 1469 1469 1468 1469 1469 1467 1466 1465 1464 1464 1463 1462 1462 1461 1461 1460 1459 1459 1458 1457 1456 1456 1455 1454 1454 1453 1452 1452 1451 1450
1487 1486 1486 1485 1485 1485 1484 1484 1484 1483 1483 1482 1482 1482 1481 1481 1481 1480 1480 1480 1479 1479 1478 1478 1477 1477 1477 1476 1476 1475 1475 1474 1474 1473 1472 1472 1471 1471 1470 1470 1469 1468 1469 1469 1468 1466 1465 1464 1464 1463 1462 1462 1461 1461 1460 1459 1459 1458 1457 1457 1456 1455 1455 1454 1453 1452 1452 1451 1450
1487 1486 1486 1486 1485 1485 1484 1484 1484 1483 1483 1483 1482 1482 1482 1481 1481 1481 1480 1480 1479 1479 1478 1478 1478 1477 1477 1476 1476 1475 1475 1474 1474 1473 1473 1472 1472 1471 1471 1470 1469 1468 1468 1469 1468 1467 1466 1465 1464 1463 1463 1462 1462 1461 1460 1460 1459 1458 1457 1457 1456 1455 1455 1454 1453 1452 1451 1451 1450
1487 1487 1486 1486 1485 1485 1485 1484 1484 1484 1483 1483 1483 1482 1482 1482 1481 1481 1480 1480 1480 1479 1479 1478 1478 1477 1477 1477 1476 1475 1475 1475 1474 1473 1473 1472 1472 1471 1471 1470 1470 1469 1468 1468 1468 1467 1466 1465 1464 1463 1463 1462 1462 1461 1460 1459 1459 1458 1457 1456 1456 1455 1454 1453 1452 1452 1451 1450 1449
1487 1487 1486 1486 1486 1485 1485 1484 1484 1484 1483 1483 1483 1482 1482 1482 1481 1481 1481 1480 1480 1479 1479 1478 1478 1478 1477 1477 1476 1476 1475 1475 1474 1474 1473 1472 1472 1472 1471 1471 1470 1469 1468 1468 1468 1467 1465 1464 1463 1463 1462 1462 1461 1460 1459 1458 1458 1457 1456 1455 1455 1454 1453 1452 1451 1450 1449 1448 1447
1487 1487 1486 1486 1486 1485 1485 1485 1484 1484 1484 1483 1483 1483 1482 1482 1482 1481 1481 1480 1480 1479 1479 1478 1478 1477 1477 1477 1476 1476 1475 1475 1474 1474 1473 1473 1472 1471 1471 1470 1470 1468 1467 1467 1468 1467 1466 1464 1463 1462 1461 1461 1460 1459 1458 1457 1456 1456 1455 1454 1453 1453 1452 1451 1450 1449 1448 1447 1446
1487 1487 1486 1486 1486 1485 1485 1485 1484 1484 1484 1483 1483 1483 1482 1482 1482 1481 1481 1480 1480 1479 1479 1478 1478 1477 1477 1477 1476 1476 1475 1475 1474 1474 1473 1472 1472 1471 1471 1470 1469 1468 1467 1467 1468 1467 1466 1465 1463 1461 1460 1460 1459 1458 1457 1457 1456 1455 1455 1454 1453 1452 1452 1451 1450 1449 1448 1447 1447
1487 1487 1486 1486 1485 1485 1485 1484 1484 1484 1483 1483 1483 1482 1482 1482 1482 1481 1481 1480 1480 1479 1479 1478 1478 1477 1477 1477 1476 1476 1475 1475 1474 1473 1472 1472 1471 1470 1470 1469 1468 1467 1466 1466 1467 1467 1466 1465 1464 1462 1460 1460 1459 1458 1457 1457 1456 1456 1455 1454 1454 1453 1452 1452 1451 1450 1449 1449 1448
1487 1486 1486 1486 1485 1485 1485 1484 1484 1484 1483 1483 1483 1482 1482 1482 1481 1481 1481 1480 1480 1479 1479 1479 1478 1478 1477 1477 1476 1475 1475 1474 1473 1472 1472 1471 1470 1470 1469 1469 1468 1467 1466 1466 1467 1467 1466 1465 1464 1462 1461 1460 1460 1459 1458 1457 1457 1456 1456 1455 1455 1454 1453 1453 1452 1451 1450 1450 1449
1487 1486 1486 1485 1485 1485 1484 1484 1484 1483 1483 1483 1482 1482 1482 1482 1481 1481 1481 1480 1480 1479 1479 1478 1478 1477 1477 1476 1475 1474 1474 1473 1472 1471 1471 1470 1470 1469 1469 1469 1468 1468 1467 1466 1467 1467 1467 1466 1465 1463 1462 1461 1460 1460 1459 1458 1457 1457 1456 1456 1455 1455 1454 1453 1452 1451 1451 1450 1449
1487 1486 1486 1485 1485 1485 1484 1484 1484 1483 1483 1483 1482 1482 1482 1482 1481 1481 1481 1480 1480 1479 1479 1478 1477 1477 1476 1475 1474 1473 1473 1472 1471 1471 1470 1470 1470 1469 1469 1469 1469 1468 1467 1467 1467 1467 1467 1466 1465 1464 1462 1461 1461 1460 1459 1459 1458 1457 1457 1456 1455 1454 1454 1453 1452 1451 1450 1450 1449
1487 1486 1486 1485 1485 1485 1484 1484 1484 1483 1483 1483 1482 1482 1482 1482 1481 1481 1480 1480 1479 1479 1478 1477 1476 1476 1475 1474 1473 1473 1472 1472 1472 1471 1471 1471 1470 1470 1470 1470 1469 1469 1468 1467 1467 1467 1467 1466 1465 1464 1463 1461 1461 1460 1460 1459 1458 1457 1456 1456 1455 1454 1453 1452 1452 1451 1450 1449 1448
Wind_Speed
12 13 14 13 12 11 10 8 7 6 5 5 4 4 4 5 7 8 9 10 11 11 12 12 12 12 12 13 13 14 15 15 15 15 15 15 14 14 13 13 13 13 13 13 14 14 15 16 17 18 19 20 21 21 22 22 22 22 23 24 25 25 26 26 26 26 26 27 27
9 10 10 10 8 7 5 5 4 3 3 2 1 0 2 3 5 6 7 8 8 9 9 10 10 10 11 12 12 13 14 14 15 14 14 13 13 12 12 12 12 12 11 11 12 12 13 13 15 16 17 18 20 20 21 22 22 23 23 24 24 25 25 25 24 24 25 26 27
11 12 11 11 10 9 8 7 7 6 4 3 2 1 1 2 3 4 4 5 6 6 7 7 8 9 10 11 12 12 13 13 13 12 12 12 12 12 12 12 12 12 12 11 11 11 12 12 13 15 16 17 19 19 19 20 20 21 22 23 24 24 24 23 22 22 24 25 26
13 13 12 12 10 9 8 8 7 6 5 4 3 2 2 2 3 3 4 5 5 5 5 6 6 7 8 9 10 10 11 11 10 11 11 11 11 12 12 13 13 13 12 12 12 12 12 12 13 13 15 16 17 16 15 17 18 19 20 21 23 24 24 23 21 21 23 24 25
13 13 12 11 11 10 10 9 8 7 6 5 5 4 4 4 4 5 5 4 4 4 4 4 4 5 6 6 7 7 7 8 8 9 9 10 10 11 12 12 11 11 11 12 11 11 11 11 11 11 12 13 14 14 14 14 15 16 18 19 20 21 22 22 21 21 22 22 24
15 15 15 14 14 13 13 12 11 10 9 7 6 6 7 7 7 7 6 6 6 7 6 6 6 5 4 4 4 4 5 5 6 7 7 7 8 9 9 9 9 9 9 9 8 8 8 8 8 8 9 10 11 11 11 12 12 13 15 16 18 19 19 19 19 19 19 20 20
18 18 18 17 16 15 15 14 13 12 11 10 10 10 10 10 10 9 9 9 9 9 9 8 7 6 5 4 3 3 3 3 4 4 4 5 5 5 6 6 6 5 5 5 4 4 4 4 4 4 5 5 6 7 7 7 8 9 11 13 15 16 16 15 15 14 14 15 16
18 18 18 17 16 15 15 15 15 14 13 13 12 12 11 11 10 10 9 9 10 9 9 9 8 7 6 5 5 4 5 5 6 6 6 6 5 5 4 4 3 3 3 3 3 4 3 2 2 1 1 1 1 2 2 2 3 4 7 10 11 12 12 11 11 11 11 11 13
17 16 16 16 15 15 14 14 14 13 13 12 12 11 11 10 10 9 9 9 9 9 9 9 9 8 8 7 7 7 7 7 8 8 8 8 7 7 6 5 5 4 4 4 5 5 5 5 5 5 4 4 4 4 3 2 1 2 4 5 6 6 7 6 6 7 8 9 10
16 16 15 15 14 14 13 13 12 12 12 12 12 11 11 11 10 9 9 9 8 8 9 9 10 9 9 9 9 9 9 9 10 10 10 10 10 9 9 9 8 7 7 7 7 8 8 8 8 7 7 7 7 7 6 5 4 3 2 1 1 1 0 0 1 2 4 5 5
15 15 15 14 14 13 13 12 12 12 12 12 12 12 12 11 11 10 10 9 8 9 9 9 10 10 10 10 10 11 11 11 12 12 13 13 12 12 12 12 11 10 10 10 10 10 10 10 10 10 10 9 10 10 9 8 7 6 5 4 3 3 3 3 3 4 4 5 4
14 14 14 14 13 13 13 13 13 13 13 13 13 13 13 13 13 12 11 10 10 10 10 10 10 10 11 11 12 12 12 12 13 13 14 14 14 15 15 15 14 14 13 12 12 11 12 12 12 12 12 12 12 12 12 11 9 8 8 7 6 5 5 6 6 6 7 8 7
13 13 13 13 13 13 13 14 14 14 14 14 14 14 14 14 14 13 13 12 12 12 12 11 11 11 12 12 12 12 12 12 13 13 14 15 16 17 17 17 17 17 16 15 14 14 14 14 14 15 15 15 15 15 14 12 11 11 10 10 9 8 8 8 9 9 10 10 10
12 12 12 12 12 12 13 14 14 14 14 14 14 14 14 14 14 14 13 13 13 13 13 13 13 13 12 12 12 12 12 12 13 14 16 17 17 18 19 19 19 19 19 18 17 17 16 16 17 17 17 17 17 17 15 14 13 13 12 12 12 12 12 12 12 12 12 13 13
11 12 12 12 12 13 13 13 14 14 13 14 14 14 14 14 14 13 13 13 13 13 13 12 12 12 12 12 12 12 12 13 14 16 17 18 19 19 19 19 19 19 19 19 19 18 18 18 18 18 18 18 18 18 17 17 16 16 15 15 15 15 15 15 15 15 15 15 15
12 12 12 12 12 13 13 13 13 13 13 13 13 13 13 13 13 13 12 12 12 12 12 12 11 11 11 11 11 11 11 13 14 16 17 19 19 19 19 19 19 19 19 19 19 19 18 18 18 18 18 18 18 19 19 19 19 19 19 18 18 18 18 18 18 18 17 17 17
12 12 12 12 13 13 13 13 13 13 12 12 12 12 12 12 12 12 12 12 12 11 11 11 10 10 10 10 10 10 11 12 14 15 17 18 19 19 18 18 18 18 18 18 18 18 18 18 17 17 17 18 18 19 19 19 19 19 19 19 19 19 19 19 19 19 19 19 18
11 12 12 12 13 13 13 13 12 12 12 12 11 11 11 11 12 12 12 12 12 11 11 10 10 9 9 9 9 10 11 12 13 15 16 17 18 18 18 17 17 17 17 17 17 16 16 16 16 16 17 17 17 18 18 19 19 19 19 19 20 20 20 20 19 19 19 19 18
11 11 11 12 12 12 12 12 12 12 11 11 11 11 11 11 11 11 11 12 12 11 11 11 10 9 9 9 9 10 11 12 14 14 15 16 17 17 17 17 16 16 16 16 16 15 15 15 15 15 16 16 17 17 18 18 19 19 19 20 20 20 20 19 19 19 18 18 18
10 10 11 11 11 11 11 11 11 11 11 11 10 10 10 10 10 11 11 11 12 12 12 11 11 10 9 9 9 10 11 13 14 14 14 15 16 17 17 16 15 15 15 15 15 14 14 14 15 15 15 16 16 17 18 18 19 19 19 20 20 20 19 19 19 18 18 18 17
9 9 10 10 10 10 11 11 11 11 10 10 10 10 10 10 10 11 11 12 12 12 12 12 11 11 10 9 9 10 11 12 13 13 14 14 15 16 16 15 15 14 15 15 15 15 15 15 15 15 16 16 17 17 18 18 19 19 19 19 19 19 19 19 18 18 18 17 17
8 9 9 9 9 9 10 10 10 10 10 10 10 10 10 10 10 11 12 12 12 12 12 12 12 11 10 10 9 10 10 11 11 12 12 13 15 16 16 15 15 15 15 15 15 15 16 16 16 16 16 16 17 17 18 18 18 19 19 19 19 19 19 19 18 18 18 18 17
7 8 8 8 8 8 8 9 9 9 9 9 9 10 10 10 10 11 11 11 11 12 12 12 12 12 11 10 10 10 9 10 10 11 11 12 14 15 16 16 16 15 16 16 16 16 17 17 17 17 17 17 17 17 17 18 18 18 18 18 18 18 18 18 18 18 18 18 17
7 7 7 7 7 7 7 7 7 8 8 8 9 9 9 10 10 10 10 10 11 11 11 12 12 12 11 11 10 10 10 10 11 11 12 13 13 15 16 17 17 17 16 17 17 17 17 18 18 17 17 17 17 17 17 17 17 17 17 17 17 17 17 17 18 18 17 17 17
6 6 6 6 6 6 6 6 6 6 7 7 8 8 8 8 9 9 9 9 10 10 11 11 11 11 11 11 10 10 10 11 12 13 14 15 15 16 17 18 18 17 17 16 17 17 18 18 18 18 17 17 17 16 16 16 17 17 17 17 17 17 17 17 17 17 17 17 17
5 5 5 5 5 5 5 5 5 5 6 6 7 7 7 8 8 8 8 9 9 10 10 10 10 10 10 10 10 10 11 12 13 14 15 16 17 17 18 19 18 17 16 16 16 17 18 18 18 18 17 17 16 16 15 16 16 16 16 16 17 17 17 17 17 17 17 17 16
5 4 4 4 4 4 4 4 5 5 5 6 6 6 7 7 7 7 8 8 9 10 10 10 10 10 10 10 10 10 11 11 12 13 14 14 15 17 18 19 18 17 16 15 16 17 17 18 18 18 17 17 16 15 15 15 15 15 16 16 16 17 17 17 17 17 17 17 16
4 4 4 4 4 4 4 4 5 5 5 5 6 6 6 7 7 7 7 8 9 9 10 10 10 10 10 10 10 10 10 11 11 11 12 12 13 15 16 17 18 16 15 15 15 17 17 18 18 18 17 17 16 15 14 14 14 15 15 16 16 17 17 17 17 17 17 17 16
3 3 3 3 3 4 4 5 5 5 5 5 6 6 6 7 7 7 7 8 8 9 10 10 11 10 10 10 10 10 10 10 10 10 10 10 11 13 14 16 17 16 15 14 15 17 18 18 18 18 17 17 16 15 14 14 14 15 15 16 16 17 17 17 17 18 18 18 17
4 4 3 3 3 4 4 4 5 5 5 6 6 6 6 6 6 7 7 8 8 9 10 10 11 10 10 10 10 10 10 10 10 9 9 9 10 11 13 14 16 17 16 15 15 16 18 18 18 18 17 17 16 15 14 14 15 15 15 16 16 16 17 17 17 18 18 18 17
4 4 4 4 3 3 4 4 4 5 5 6 6 6 6 6 6 6 7 8 8 9 10 10 10 10 10 10 10 10 10 10 10 9 9 9 10 10 11 13 15 16 16 15 15 16 17 18 18 17 17 16 15 14 14 14 15 15 15 15 16 16 17 17 17 18 18 18 18
4 4 4 3 3 3 3 4 4 4 5 5 5 5 5 5 5 6 7 7 8 9 9 10 10 10 10 10 10 10 10 10 10 10 10 9 9 9 9 11 12 14 15 15 15 16 17 17 17 17 16 15 14 14 14 14 15 15 15 15 16 16 17 17 17 18 18 18 18
3 3 3 3 3 3 3 3 3 4 4 4 4 4 4 5 5 6 6 7 7 8 9 9 9 9 9 9 9 9 10 10 10 10 9 9 8 8 8 9 11 13 14 15 15 16 17 18 17 16 15 15 14 14 14 15 16 16 16 16 17 17 18 18 18 19 19 20 20
3 3 3 3 3 3 3 3 3 3 3 3 3 3 4 4 5 5 5 6 7 7 8 8 9 9 9 9 9 9 9 9 9 9 8 8 7 7 6 7 9 11 13 15 15 16 17 18 17 17 16 15 15 15 16 17 18 18 18 18 19 19 20 20 21 21 22 22 22
3 3 3 3 3 3 3 3 3 3 3 3 3 3 3 4 4 4 5 5 6 7 7 8 8 8 8 8 8 8 8 8 8 7 7 7 6 5 5 6 8 11 13 15 15 15 15 17 18 18 18 17 17 18 19 19 20 20 21 21 21 22 22 23 23 23 23 24 24
3 3 3 3 3 3 3 3 3 3 3 3 3 3 3 3 4 4 5 5 6 7 7 8 8 8 7 7 7 7 7 7 6 6 6 6 5 4 4 5 8 11 14 15 15 14 14 16 18 19 20 19 19 19 20 20 21 21 21 22 22 22 23 23 23 23 23 23 24
4 4 4 4 4 4 4 3 3 3 3 3 3 3 3 4 4 5 5 6 6 6 7 7 7 7 6 6 5 6 6 6 6 6 6 6 6 5 5 5 8 11 14 15 15 14 14 15 17 19 20 20 19 19 19 19 20 20 20 20 21 21 21 21 21 21 21 21 21
5 5 5 5 5 4 4 4 4 4 3 3 3 3 3 4 4 4 5 5 5 5 6 6 6 6 5 5 5 5 6 7 7 7 7 8 8 8 7 7 8 11 13 15 15 15 15 15 16 17 18 18 18 18 18 18 18 18 18 18 18 19 19 19 19 19 19 19 19
6 6 5 5 5 5 5 4 4 4 3 3 3 3 3 3 3 3 4 4 4 5 5 5 5 5 5 6 6 6 7 8 9 9 9 10 10 11 10 9 9 10 12 13 14 14 14 15 15 16 17 16 16 16 16 16 16 16 17 17 17 17 17 17 17 17 17 17 18
6 6 6 6 5 5 5 4 4 3 3 3 3 3 3 2 2 2 3 4 4 5 5 6 6 6 7 7 8 8 9 10 10 11 11 11 11 11 10 9 8 8 10 12 13 13 13 14 14 15 15 15 15 15 15 15 15 16 16 16 16 16 17 17 17 17 18 18 18
6 6 6 5 5 5 4 4 3 3 3 3 3 2 2 2 2 2 3 4 5 6 6 7 7 8 9 9 9 10 10 10 10 11 10 10 10 9 8 8 7 7 8 10 12 12 12 12 12 13 14 14 14 14 15 15 16 16 16 16 17 17 17 17 18 18 18 19 19
Wind_Direction
155 155 158 164 172 180 188 196 204 212 219 226 230 244 265 279 283 288 292 295 299 301 301 301 302 303 304 306 308 309 308 307 306 305 304 303 302 299 295 292 289 287 284 281 278 276 274 272 272 272 273 272 273 273 273 272 273 274 276 277 277 277 278 280 283 285 280 267 252
130 131 133 134 138 143 146 142 138 139 142 148 148 212 285 289 293 297 301 306 309 310 311 312 314 315 317 318 319 319 317 315 314 313 314 314 313 311 309 308 306 303 299 294 289 284 280 277 275 275 274 272 271 272 271 269 270 273 275 276 277 278 279 281 284 283 277 265 252
105 106 106 106 105 104 102 100 98 96 94 91 78 14 322 311 311 315 322 328 329 328 329 329 330 329 328 327 327 326 324 322 321 322 323 325 325 323 322 322 321 317 312 306 300 294 287 281 277 274 273 272 272 271 270 267 268 270 272 274 276 279 281 283 282 279 271 262 252
93 95 95 94 93 91 89 86 83 80 73 62 48 32 19 15 15 16 13 6 1 358 354 348 344 341 337 333 331 331 332 332 331 332 332 334 333 333 332 331 328 323 319 314 308 301 294 286 280 276 273 272 271 268 264 264 265 266 269 272 276 280 284 285 280 273 266 259 253
86 87 87 86 85 85 84 81 78 74 67 57 51 49 51 53 55 54 51 46 44 42 37 27 16 6 356 348 343 343 346 348 344 341 338 338 341 341 339 336 332 328 324 319 314 307 299 291 284 278 273 271 268 265 262 262 264 266 269 273 277 281 283 281 275 268 261 256 253
89 89 88 88 88 88 88 87 84 82 79 76 77 80 84 87 89 89 88 83 78 77 75 72 65 56 44 27 14 8 6 2 354 349 347 345 344 343 343 342 335 331 330 328 322 314 306 297 286 277 271 267 264 262 261 262 264 268 272 276 278 279 277 270 263 257 254 253 253
93 93 92 91 90 92 93 94 94 95 96 98 100 101 100 100 100 98 93 89 88 87 87 86 85 83 80 76 69 59 50 43 35 29 25 21 12 3 354 348 343 344 350 354 350 342 330 314 293 277 266 260 255 255 257 259 261 267 273 276 275 272 266 257 254 252 252 254 256
93 93 94 94 95 97 100 102 104 105 106 107 106 103 100 99 96 94 92 91 90 89 87 90 90 90 92 94 95 96 93 89 84 78 72 65 58 49 35 23 17 23 35 39 41 42 40 38 46 69 103 152 176 194 223 249 256 277 284 279 271 264 257 252 254 256 258 262 263
93 94 95 97 98 100 101 103 104 105 105 105 102 99 97 95 91 90 89 88 87 86 86 86 86 86 87 88 90 93 94 93 90 87 84 81 78 75 70 66 64 67 70 69 66 66 67 68 72 78 83 87 93 94 91 78 35 308 291 281 267 258 254 255 259 263 266 269 272
90 91 92 93 94 95 97 98 98 98 98 98 96 95 94 92 89 86 83 81 82 84 83 80 79 79 79 78 79 83 86 87 87 86 84 82 80 78 75 72 70 70 71 70 69 69 70 70 71 73 73 72 73 73 72 65 47 19 336 314 283 243 197 316 297 293 290 291 290
84 85 85 86 88 89 91 92 92 93 93 93 93 92 91 89 86 84 82 81 82 81 80 78 76 74 73 72 72 75 78 81 82 82 81 79 77 75 72 69 67 66 66 66 65 65 65 65 64 64 63 61 60 58 56 52 45 39 36 38 38 37 36 33 17 6 6 8 360
81 82 83 85 87 89 90 91 91 92 92 91 91 90 89 87 84 83 83 83 81 79 77 76 74 72 70 69 69 71 73 77 79 79 78 76 74 72 70 67 65 63 62 61 60 60 60 60 58 57 56 55 54 52 48 44 41 39 37 35 28 20 15 11 5 6 11 15 11
83 85 87 88 89 90 91 91 90 90 90 90 89 88 87 86 84 82 81 79 77 75 74 73 72 71 70 69 69 70 73 75 77 78 78 76 73 71 69 67 64 62 60 59 58 59 60 59 58 57 56 56 54 51 47 41 37 35 34 33 29 25 20 15 13 12 11 8 7
82 85 88 89 89 90 89 89 88 88 88 88 88 88 87 87 85 83 80 77 75 73 72 71 69 69 70 71 72 73 75 77 79 80 80 78 75 72 70 68 65 63 61 59 59 59 60 61 60 59 58 57 56 53 49 44 40 38 36 35 33 30 27 23 19 15 12 10 8
77 80 83 85 86 87 87 87 87 86 87 87 87 88 89 89 88 86 83 80 77 75 73 71 69 69 70 72 74 75 77 79 81 82 82 81 78 76 73 71 69 66 63 61 60 60 60 61 61 60 59 58 56 54 52 50 48 46 44 42 40 37 34 31 27 23 19 17 15
72 75 77 79 81 82 83 84 85 85 85 86 87 87 88 88 88 87 85 82 80 78 77 75 74 74 74 75 76 78 79 81 82 84 84 83 81 79 76 74 72 69 67 64 62 60 60 60 60 60 60 58 57 56 55 54 53 52 50 48 46 43 41 38 35 32 29 26 24
70 73 75 76 77 77 78 80 81 82 83 84 85 85 85 85 85 85 84 83 81 79 78 77 78 79 81 82 82 82 82 83 83 84 84 84 82 80 77 75 73 72 69 66 63 61 59 59 59 59 59 59 59 58 57 56 55 54 53 51 49 47 45 43 40 38 35 32 30
69 71 73 74 75 75 76 77 78 79 80 81 81 81 81 81 82 82 81 81 80 78 77 77 78 80 83 85 86 86 85 85 84 84 84 84 84 82 79 76 74 73 71 68 65 62 60 58 58 58 59 59 59 59 58 57 57 55 54 52 50 49 47 45 43 40 38 35 33
69 71 72 74 75 76 77 78 78 78 78 78 78 78 78 78 78 78 78 78 78 78 77 77 78 79 81 84 87 88 89 87 86 86 86 86 86 84 81 78 76 74 72 70 67 63 60 58 57 57 57 58 58 58 57 56 55 54 53 51 50 48 46 44 43 41 39 37 34
70 72 74 75 77 78 79 80 80 80 79 79 79 79 80 80 80 80 79 79 79 78 78 78 79 80 82 84 89 92 92 91 89 87 87 87 87 86 83 80 77 75 73 70 66 63 60 57 55 54 54 55 55 55 54 53 52 51 50 49 47 46 44 42 40 39 37 34 32
71 74 76 77 79 80 81 82 82 82 83 84 84 84 84 83 83 82 81 80 79 79 79 79 80 81 83 87 92 95 95 94 91 89 86 85 85 84 83 80 77 74 72 69 66 63 60 57 55 53 52 51 51 51 51 49 48 47 46 45 43 42 40 39 37 35 34 32 29
71 74 75 77 79 79 80 80 81 82 83 84 84 84 83 83 81 80 79 78 78 79 79 80 81 82 84 87 90 93 95 94 92 87 84 81 81 81 79 76 73 71 70 67 65 62 60 56 53 51 48 47 46 46 46 45 45 43 42 41 39 38 36 35 33 32 30 28 26
68 70 72 75 76 77 77 77 78 78 78 78 79 79 78 78 77 77 77 78 78 78 79 79 81 82 83 83 84 86 88 87 84 80 76 75 75 75 73 69 65 64 63 61 59 57 55 53 50 47 45 43 42 41 42 42 41 41 40 38 37 35 34 32 30 29 27 26 24
64 65 67 69 71 73 74 74 74 73 73 73 73 73 73 73 74 74 76 77 77 78 78 78 79 80 81 81 80 80 79 76 73 70 67 66 66 67 66 62 57 54 53 53 51 49 48 47 46 44 41 39 37 37 37 38 38 38 37 36 35 34 32 31 29 27 25 24 22
59 60 62 64 67 69 71 72 73 72 71 71 70 70 70 71 72 73 74 75 76 76 76 76 77 78 78 79 77 74 70 66 65 63 61 60 59 59 59 57 51 46 45 46 45 44 42 41 41 40 39 36 34 33 33 33 34 34 33 33 32 32 31 29 28 26 24 22 20
55 57 59 61 64 67 70 73 74 73 71 70 70 69 68 68 69 69 71 72 73 73 74 74 74 74 73 73 71 67 63 59 58 58 57 57 56 56 56 55 49 41 36 38 40 40 38 36 36 37 37 35 33 31 30 31 31 31 30 29 28 27 27 26 25 24 23 21 19
51 54 57 59 62 66 69 70 71 70 69 69 69 68 66 65 64 64 65 67 69 70 71 70 69 68 66 64 62 59 57 55 54 53 53 53 53 55 57 57 53 42 31 29 33 36 35 33 32 33 34 34 32 30 29 29 29 29 27 26 25 23 22 22 22 21 21 20 18
41 46 51 54 57 60 61 61 62 63 63 64 64 63 62 60 58 57 57 59 63 66 67 67 65 63 61 59 57 55 53 52 51 51 50 48 48 50 54 57 57 49 36 25 26 28 29 30 28 28 30 30 30 28 27 27 28 27 26 24 23 21 20 19 18 18 19 18 17
26 32 36 42 45 47 50 52 53 53 53 54 55 55 55 54 52 50 50 52 55 59 62 63 62 60 58 55 53 52 51 50 49 49 47 44 42 43 46 51 54 51 41 26 21 21 22 25 25 25 25 26 27 26 25 25 26 25 24 23 21 20 18 17 16 16 16 16 16
14 19 23 27 30 34 39 41 43 44 45 45 46 47 47 47 46 45 45 47 50 53 57 58 58 57 55 53 51 49 48 46 46 44 42 39 37 36 37 40 45 46 41 28 20 17 17 20 23 23 22 23 23 22 22 23 24 23 23 22 20 19 17 15 14 14 13 13 13
8 12 14 16 20 23 28 32 36 39 39 39 39 39 40 41 41 42 43 45 47 49 51 53 54 54 53 50 49 47 45 43 41 40 38 37 35 33 31 32 36 40 38 29 21 16 14 16 20 22 21 20 19 19 19 21 22 23 22 21 19 17 16 14 13 12 11 10 10
5 8 10 12 13 16 21 26 32 35 37 36 35 34 35 36 37 39 41 43 45 46 47 49 51 52 51 50 47 45 43 41 39 37 35 35 35 32 27 24 28 35 36 30 21 14 10 11 17 21 21 18 16 16 17 20 22 23 22 20 19 17 15 13 12 11 10 9 8
5 8 10 10 11 15 19 25 30 35 36 36 33 32 32 34 35 38 41 43 45 46 47 49 51 52 51 50 47 45 43 41 39 36 35 34 34 31 24 17 21 29 34 31 22 13 8 7 13 19 20 17 14 14 15 18 21 22 21 20 18 16 14 13 12 11 9 9 8
10 14 16 16 18 20 25 29 33 38 39 36 33 32 32 33 35 37 40 43 46 47 48 49 52 54 53 51 48 44 41 40 38 36 35 34 35 33 25 16 18 26 33 34 24 15 7 4 7 13 17 16 13 13 15 17 19 20 20 18 17 15 14 13 12 10 9 8 8
21 25 26 26 27 28 30 34 39 42 42 39 37 34 33 34 34 35 38 42 45 46 46 46 47 49 49 48 45 42 40 38 37 37 37 38 40 39 31 21 21 29 37 41 30 19 10 3 1 5 11 13 13 13 15 18 19 19 19 17 16 14 13 12 11 10 9 7 7
28 31 32 32 32 31 33 37 41 44 43 41 38 37 35 33 31 32 34 38 41 42 43 43 43 44 46 45 44 42 40 40 40 41 43 46 51 54 46 31 29 34 41 46 36 24 15 8 1 1 5 10 12 14 15 17 18 18 18 16 15 13 11 10 9 8 7 5 4
29 31 32 32 31 30 31 34 38 39 39 38 37 36 33 32 29 29 30 34 37 38 40 41 42 42 44 46 46 45 43 43 44 47 51 53 57 59 54 40 34 35 40 44 37 26 19 15 5 1 2 7 10 12 13 14 16 16 16 15 13 11 9 7 6 5 4 3 1
27 28 29 29 27 27 27 30 31 33 33 35 35 34 32 30 27 25 27 31 34 36 37 39 40 42 46 48 49 47 45 45 47 50 52 52 51 50 47 38 32 31 34 38 34 26 20 17 10 3 0 4 9 10 10 11 13 14 13 13 11 10 7 5 4 3 3 2 1
24 25 25 25 23 23 23 25 26 27 30 32 32 32 30 26 23 23 26 31 36 39 41 41 44 47 49 50 50 48 46 44 44 45 46 45 42 40 37 31 25 24 27 32 31 26 20 17 11 4 360 3 8 9 8 9 11 12 12 12 11 9 7 5 4 4 4 4 3
21 22 22 21 20 19 20 21 22 26 29 31 29 26 23 20 17 19 25 31 37 41 43 46 49 51 51 51 51 49 45 42 40 40 40 39 37 35 32 27 21 20 25 30 32 27 21 16 12 5 1 3 9 10 8 8 10 12 13 12 10 9 7 6 6 6 6 6 5
18 19 18 17 17 16 16 18 20 25 30 30 27 22 18 18 19 25 32 38 40 42 44 47 50 51 52 51 50 47 44 42 40 39 38 38 37 36 32 26 20 21 27 33 34 30 23 17 14 8 4 4 9 11 9 7 9 12 13 13 11 9 7 6 6 6 7 7 6